{"data":{"norad_id":68778,"intl_designator":"2026-086N","name":"STARLINK-37389","alt_names":[],"object_type":"PAYLOAD","status":"ACTIVE","operator":null,"country":"US","launch_date":"2026-04-19","launch_site_code":"AFWTR","launch_vehicle":null,"mission":null,"orbit_class":"UNKNOWN","rcs_meters":null,"size_class":null,"mass_kg":null,"dimensions":null,"purposes":["comms"],"wikipedia_slug":null,"has_3d_model":false,"image_url":null,"decayed_at":null,"tle_current":{"epoch":"2026-09-20T00:53:50.335296Z","epoch_age_seconds":79979,"freshness":"FRESH","line1":"1 68778U 26086N   26263.03738814  .00011144  00000+0  34677-3 0  9991","line2":"2 68778  97.2852 298.4655 0001400 100.3420 259.7981 15.33465122 23610","mean_motion":15.33465122,"eccentricity":0.00014,"inclination_deg":97.2852,"raan_deg":298.4655,"arg_perigee_deg":100.342,"mean_anomaly_deg":259.7981,"bstar":0.00034677,"rev_number":2361,"period_min":93.904972427537,"perigee_km":464.52519937496,"apogee_km":466.4414130607,"semimajor_km":6843.6203062178,"source":"CELESTRAK","updated_at":"2026-09-20T09:00:44.000402Z"}}}